Location: Melbourne
(37.8170°S, 144.9670°E)
Time: 23:44:43
(UTC+10:00)

CZ-3 R/B - Visible Passes

Search period start: 01 September 2014 00:00
Search period end: 11 September 2014 00:00
Orbit: 209 x 15039 km, 28.5° (Epoch: 31 August)

Date Brightness Start Highest point End Pass type
(mag) Time Alt. Az. Time Alt. Az. Time Alt. Az.
01 Sep 7.9 00:00:00 15° ESE 23:59:45 15° ESE 00:22:54 10° ESE visible
01 Sep 6.4 03:22:09 44° NW 04:41:18 76° NNE 06:17:24 10° ENE visible
01 Sep 7.0 21:41:10 10° E 21:41:10 10° E 21:48:00 10° E visible
02 Sep 6.3 02:15:53 55° NNW 02:58:43 69° NNE 05:02:11 10° E visible
03 Sep 6.3 01:09:13 55° NNE 01:26:56 58° NE 03:42:44 10° E visible
03 Sep 6.7 05:43:51 12° W 08:08:39 66° NNW 08:50:25 10° NE visible
04 Sep 6.5 00:02:09 44° NE 00:04:39 44° ENE 02:16:14 10° E visible
04 Sep 6.5 04:36:42 27° WNW 06:36:05 74° NNW 07:38:54 10° ENE visible
04 Sep 6.7 22:54:41 29° ENE 22:54:41 29° ENE 00:36:29 10° ESE visible
05 Sep 6.3 03:29:09 43° WNW 04:50:14 77° N 06:25:16 10° ENE visible
05 Sep 6.9 21:46:49 15° E 21:46:49 15° E 22:25:55 10° ESE visible
06 Sep 6.2 02:21:12 57° NNW 03:03:11 72° NNE 05:08:43 10° E visible
07 Sep 6.2 01:12:52 60° NNE 01:27:48 62° NE 03:47:50 10° E visible
07 Sep 6.7 05:47:10 10° W 08:10:32 62° NW 08:54:08 10° NE visible
08 Sep 6.4 00:04:09 49° NE 00:04:09 49° NE 02:19:49 10° E visible
08 Sep 6.5 04:38:21 26° W 06:36:57 72° NNW 07:41:18 10° NE visible
08 Sep 6.6 22:55:02 33° ENE 22:55:02 33° ENE 00:38:51 10° ESE visible
09 Sep 6.3 03:29:10 42° WNW 04:49:31 77° N 06:26:15 10° ENE visible
09 Sep 6.8 21:45:32 18° E 21:45:32 18° E 22:32:32 10° ESE visible
10 Sep 6.1 02:19:35 58° NW 02:59:31 74° NNE 05:08:09 10° ENE visible
